This is the latest recevied weather packets stored in our database for station/object Waldburg. If no packets are shown the sender has not sent any weather packets the latest 10 day(s).
| Time | Temp. | Humidity | Pressure | Rain* | Wind** | Luminosity | Snow |
|---|---|---|---|---|---|---|---|
| 1777955531 | 8.33° C | 95% | 1007.2 hPa | 0 mm | - | - | - |
| 1777953731 | 7.78° C | 94% | 1007.3 hPa | 0 mm | - | - | - |
| 1777951931 | 7.78° C | 94% | 1007.5 hPa | 0 mm | - | - | - |
| 1777950134 | 8.33° C | 94% | 1007.7 hPa | 0 mm | - | - | - |
| 1777948331 | 8.33° C | 92% | 1008 hPa | 0 mm | - | - | - |
| 1777946531 | 8.33° C | 91% | 1008.1 hPa | 0 mm | - | - | - |
| 1777944731 | 9.44° C | 92% | 1008.3 hPa | 0 mm | - | - | - |
| 1777942931 | 9.44° C | 90% | 1008.8 hPa | 0 mm | - | - | - |
| 1777941129 | 10° C | 90% | 1009.2 hPa | 0 mm | - | - | - |
| 1777939330 | 10° C | 88% | 1009.2 hPa | 0 mm | - | - | - |
| 1777937529 | 10.56° C | 87% | 1009.4 hPa | 0 mm | - | - | - |
| 1777935730 | 10.56° C | 84% | 1009.7 hPa | 0 mm | - | - | - |
| 1777933935 | 11.67° C | 82% | 1010.1 hPa | 0 mm | - | - | - |
| 1777932130 | 11.67° C | 78% | 1010.1 hPa | 0 mm | - | - | - |
| 1777930329 | 12.78° C | 73% | 1010.3 hPa | 0 mm | - | - | - |
| 1777928529 | 13.89° C | 62% | 1010.1 hPa | 0 mm | - | - | - |
| 1777926729 | 15° C | 53% | 1010.1 hPa | 0 mm | - | - | - |
| 1777924929 | 15.56° C | 52% | 1009.9 hPa | 0 mm | - | - | - |
| 1777923129 | 15° C | 55% | 1009.6 hPa | 0 mm | - | - | - |
| 1777921329 | 15.56° C | 53% | 1009.4 hPa | 0 mm | - | - | - |
| 1777919529 | 17.22° C | 46% | 1009.6 hPa | 0 mm | - | - | - |
| 1777917734 | 17.78° C | 50% | 1009.8 hPa | 0 mm | - | - | - |
| 1777915929 | 18.33° C | 48% | 1009.9 hPa | 0 mm | - | - | - |
| 1777914130 | 18.89° C | 45% | 1009.7 hPa | 0 mm | - | - | - |
| 1777912332 | 20° C | 44% | 1009.6 hPa | 0 mm | - | - | - |
* Rain since midnight (hover to see other rain measurements)
** Current wind speed in m/s (hover to see current wind gust speed)